| time (UTC) | temp F | wind direction | speed MPH | gust MPH | rain 1hr in | rain 24hr in | rain mn in | humidity % | barometer mb |
| 20260504043111 | 85 | 169 | 4.0 | 9.0 | 0.00 | 0.00 | 0.00 | 22 | 989.6 |
| 20260504041555 | 86 | 167 | 5.0 | 10.0 | 0.00 | 0.00 | 0.00 | 21 | 989.3 |
| 20260504040114 | 86 | 206 | 5.0 | 12.0 | 0.00 | 0.00 | 0.00 | 21 | 989.1 |
| 20260504034555 | 87 | 172 | 6.0 | 16.0 | 0.00 | 0.00 | 0.00 | 20 | 989.0 |
| 20260504033054 | 88 | 184 | 8.0 | 20.0 | 0.00 | 0.00 | 0.00 | 20 | 988.8 |
| 20260504031558 | 89 | 200 | 7.0 | 22.0 | 0.00 | 0.00 | 0.00 | 20 | 988.5 |
| 20260504030053 | 88 | 185 | 8.0 | 15.0 | 0.00 | 0.00 | 0.00 | 21 | 988.3 |
| 20260504024553 | 89 | 126 | 7.0 | 15.0 | 0.00 | 0.00 | 0.00 | 21 | 988.1 |
| 20260504023059 | 89 | 169 | 5.0 | 14.0 | 0.00 | 0.00 | 0.00 | 21 | 987.9 |
| 20260504021552 | 90 | 161 | 6.0 | 16.0 | 0.00 | 0.00 | 0.00 | 19 | 987.9 |
| 20260504020051 | 92 | 159 | 8.0 | 16.0 | 0.00 | 0.00 | 0.00 | 18 | 987.9 |
| 20260504014600 | 92 | 152 | 8.0 | 18.0 | 0.00 | 0.00 | 0.00 | 17 | 987.9 |
| 20260504013049 | 93 | 179 | 5.0 | 12.0 | 0.00 | 0.00 | 0.00 | 17 | 988.0 |
| 20260504011549 | 93 | 188 | 8.0 | 18.0 | 0.00 | 0.00 | 0.00 | 16 | 988.0 |
| 20260504010053 | 93 | 155 | 9.0 | 21.0 | 0.00 | 0.00 | 0.00 | 15 | 988.0 |
| 20260504004551 | 94 | 122 | 10.0 | 21.0 | 0.00 | 0.00 | 0.00 | 14 | 988.2 |
| 20260504003055 | 94 | 152 | 8.0 | 20.0 | 0.00 | 0.00 | 0.00 | 14 | 988.2 |
| 20260504001601 | 95 | 152 | 11.0 | 20.0 | 0.00 | 0.00 | 0.00 | 13 | 988.4 |
| 20260504000047 | 96 | 184 | 10.0 | 21.0 | 0.00 | 0.00 | 0.00 | 13 | 988.4 |
| 20260503234542 | 95 | 215 | 14.0 | 24.0 | 0.00 | 0.00 | 0.00 | 13 | 988.4 |
| 20260503233044 | 96 | 148 | 10.0 | 22.0 | 0.00 | 0.00 | 0.00 | 13 | 988.4 |
| 20260503231541 | 96 | 215 | 14.0 | 25.0 | 0.00 | 0.00 | 0.00 | 12 | 988.5 |
| 20260503230040 | 96 | 207 | 8.0 | 18.0 | 0.00 | 0.00 | 0.00 | 12 | 988.4 |
| 20260503224538 | 96 | 189 | 10.0 | 20.0 | 0.00 | 0.00 | 0.00 | 12 | 988.7 |
| 20260503223037 | 96 | 245 | 14.0 | 26.0 | 0.00 | 0.00 | 0.00 | 11 | 988.8 |
| 20260503221536 | 96 | 178 | 12.0 | 20.0 | 0.00 | 0.00 | 0.00 | 12 | 989.1 |
| 20260503220034 | 96 | 158 | 7.0 | 18.0 | 0.00 | 0.00 | 0.00 | 13 | 989.3 |
| 20260503214532 | 96 | 150 | 13.0 | 25.0 | 0.00 | 0.00 | 0.00 | 12 | 989.5 |
| 20260503213030 | 96 | 136 | 11.0 | 22.0 | 0.00 | 0.00 | 0.00 | 12 | 989.8 |
| 20260503211529 | 96 | 214 | 11.0 | 21.0 | 0.00 | 0.00 | 0.00 | 13 | 990.1 |
| 20260503210027 | 96 | 214 | 11.0 | 27.0 | 0.00 | 0.00 | 0.00 | 13 | 990.4 |
| 20260503204529 | 96 | 101 | 11.0 | 24.0 | 0.00 | 0.00 | 0.00 | 14 | 990.3 |
| 20260503203026 | 95 | 196 | 7.0 | 16.0 | 0.00 | 0.00 | 0.00 | 17 | 990.4 |
| 20260503201523 | 94 | 113 | 9.0 | 20.0 | 0.00 | 0.00 | 0.00 | 17 | 990.7 |
| 20260503200021 | 95 | 140 | 10.0 | 19.0 | 0.00 | 0.00 | 0.00 | 16 | 991.0 |
| 20260503194518 | 94 | 135 | 12.0 | 22.0 | 0.00 | 0.00 | 0.00 | 16 | 991.3 |
| 20260503193034 | 94 | 155 | 13.0 | 28.0 | 0.00 | 0.00 | 0.00 | 15 | 991.7 |
| 20260503191514 | 94 | 145 | 9.0 | 20.0 | 0.00 | 0.00 | 0.00 | 16 | 992.0 |
| 20260503190011 | 94 | 153 | 8.0 | 16.0 | 0.00 | 0.00 | 0.00 | 17 | 992.2 |
| 20260503184507 | 92 | 336 | 1.0 | 5.0 | 0.00 | 0.00 | 0.00 | 16 | 992.6 |
| 20260503183004 | 92 | 153 | 4.0 | 9.0 | 0.00 | 0.00 | 0.00 | 16 | 993.0 |
| 20260503181629 | 90 | 134 | 3.0 | 6.0 | 0.00 | 0.00 | 0.00 | 17 | 993.2 |
| 20260503174555 | 87 | 269 | 0.0 | 6.0 | 0.00 | 0.00 | 0.00 | 16 | 993.8 |
| 20260503173057 | 87 | 253 | 2.0 | 5.0 | 0.00 | 0.00 | 0.00 | 16 | 993.8 |
| 20260503171555 | 86 | 126 | 0.0 | 2.0 | 0.00 | 0.00 | 0.00 | 14 | 994.0 |
| 20260503090110 | 68 | 150 | 0.0 | 0.0 | 0.00 | 0.00 | 0.00 | 26 | 993.7 |
| 20260503081551 | 70 | 236 | 0.0 | 1.0 | 0.00 | 0.00 | 0.00 | 24 | 993.9 |
| 20260503071547 | 73 | 270 | 0.0 | 0.0 | 0.00 | 0.00 | 0.00 | 21 | 994.0 |
| 20260503054542 | 78 | 247 | 0.0 | 2.0 | 0.00 | 0.00 | 0.00 | 14 | 993.9 |
| 20260503053038 | 79 | 65 | 1.0 | 2.0 | 0.00 | 0.00 | 0.00 | 13 | 993.8 |
| 20260503051537 | 79 | 76 | 1.0 | 2.0 | 0.00 | 0.00 | 0.00 | 13 | 993.8 |
| 20260503050037 | 79 | 76 | 1.0 | 2.0 | 0.00 | 0.00 | 0.00 | 14 | 993.8 |
| 20260503044541 | 78 | 107 | 0.0 | 1.0 | 0.00 | 0.00 | 0.00 | 15 | 993.8 |